SCP
0 0 0 0 0 0 0 0 0 0 0 0 0 0 0 0 0 0 0 0 0 0 0 0 0 0 0 0 0 0 0 0 0 0 0 0 0 0 0 0 0 0 0
0 0 0 0 0 0 0 0 0 0 0 0 0 0 0 0 0 0 0 0 0 0 0 0 0 0 0 0 0 0 0 0 0 0 0 0 0 0 0 0 0 0 0
0 0 0 0 0 0 0 0 0 0 0 0 0 0 0 0 0 0 0 0 0 0 0 0 0 0 0 0 0 0 0 0 0 0 0 0 0 0 0 0 0 0 0
0 0 0 0 0 0 0 0 0 0 0 0 0 0 0 0 0 0 0 0 0 0 0 0 0 0 0 0 0 0 0 0 0 0 0 0 0 0 0 0 0 0 0
0 0 0 0 0 0 0 0 0 0 0 0 0 0 0 0 0 0 0 0 0 0 0 0 0 0 0 0 0 0 0 0 0 0 0 0 0 0 0 0 0 0 0
0 0 0 0 0 0 0 0 0 0 0 0 0 0 0 0 0 0 0 0 0 0 0 0 0 0 0 0 0 0 0 0 0 0 0 0 0 0 0 0 0 0 0
0 0 0 0 0 0 0 0 0 0 0 0 0 0 0 0 0 0 0 0 0 0 0 0 0 0 0 0 0 0 0 0 0 0 0 0 0 0 0 0 0 0 0
0 0 0 0 0 0 0 0 0 0 0 0 0 0 0 0 0 0 0 0 0 0 0 0 0 0 0 0 0 0 0 0 0 0 0 0 0 0 0 0 0 0 0
0 0 0 0 0 0 0 0 0 0 0 0 0 0 0 0 0 0 0 0 0 0 0 0 0 0 0 0 0 0 0 0 0 0 0 0 0 0 0 0 0 0 0
0 0 0 0 0 0 0 0 0 0 0 0 0 0 0 0 0 0 0 0 0 0 0 0 0 0 0 0 0 0 0 0 0 0 0 0 0 0 0 0 0 0 0
0 0 0 0 0 0 0 0 0 0 0 0 0 0 0 0 0 0 0 0 0 0 0 0 0 0 0 0 0 0 0 0 0 0 0 0 0 0 0 0 0 0 0
0 0 0 0 0 0 0 0 0 0 0 0 0 0 0 0 0 0 0 0 0 0 0 0 0 0 0 0 0 0 0 0 0 0 0 0 0 0 0 0 0 0 0
0 0 0 0 0 0 0 0 0 0 0 0 0 0 0 0 0 0 0 0 0 0 0 0 0 0 0 0 0 0 0 0 0 0 0 0 0 0 0 0 0 0 0
0 0 0 0 0 0 0 0 0 0 0 0 0 0 0 0 0 0 0 0 0 0 0 0 0 0 0 0 0 0 0 0 0 0 0 0 0 0 0 0 0 0 0
0 0 0 0 0 0 0 0 0 0 0 0 0 0 0 0 0 0 0 0 0 0 0 0 0 0 0 0 0 0 0 0 0 0 0 0 0 0 0 0 0 0 0
0 0 0 0 0 0 0 0 0 0 0 0 0 0 0 0 0 0 0 0 0 0 0 0 0 0 0 0 0 0 0 0 0 0 0 0 0 0 0 0 0 0 0
0 0 0 0 0 0 0 0 0 0 0 0 0 0 0 0 0 0 0 0 0 0 0 0 0 0 0 0 0 0 0 0 0 0 0 0 0 0 0 0 0 0 0
0 0 0 0 0 0 -0 -0 -0 0 0 0 0 0 0 0 0 0 0 0 0 0 0 0 0 0 0 0 0 0 0 0 0 0 0 0 0 0 0 0 0 0 0
0 0 0 0 0 0 0 0 0 0 0 0 0 0 0 0 0 0 0 0 0 0 0 0 0 0 0 0 0 0 0 0 0 0 0 0 0 0 0 0 0 0 0
0 0 0 0 0 0 0 0 0 0 0 0 0 0 0 0 0 0 0 0 0 0 0 0 0 0 0 0 0 0 0 0 0 0 0 0 0 0 0 0 0 0 0
-0 -0 -0 0 0 0 0 0 0 0 0 0 0 -0 0 0 0 0 0 0 0 0 0 0 0 0 0 0 0 0 0 0 0 0 0 0 0 0 0 0 0 0 0
-0 -0 -0 0 0 0 0 0 0 0 0 0 -0 -0 0 0 0 0 0 0 0 0 0 0 0 0 0 0 0 0 0 0 0 0 0 0 0 0 0 0 0 0 0
-0 -0 -0 0 0 0 0 0 0 0 0 0 0 0 0 0 0 0 0 0 0 0 0 0 0 0 0 0 0 0 0 0 0 0 0 0 0 0 0 0 0 0 0
0 0 0 0 0 0 0 0 0 0 0 0 -0 0 0 0 0 0 0 0 0 0 0 0 0 0 0 0 0 0 0 0 0 0 0 0 0 0 0 0 0 0 0
0 0 0 0 0 0 0 0 0 0 0 0 -0 0 0 0 0 0 0 0 0 0 0 0 0 0 0 0 0 0 0 0 0 0 0 0 0 0 0 0 0 0 0
0 0 0 0 0 0 0 0 0 0 0 0 0 0 0 0 0 0 0 0 0 0 0 0 0 0 0 0 0 0 0 0 0 0 0 0 0 0 0 0 0 0 0
Wind_Speed
4 2 1 1 0 0 0 0 1 1 1 1 1 1 1 2 2 2 2 2 3 2 1 1 2 2 1 1 1 1 1 1 1 1 1 2 2 1 1 1 1 0 1
3 2 1 0 0 0 0 0 0 0 1 1 1 1 1 1 1 2 2 2 3 2 1 1 2 2 1 1 1 1 0 0 0 0 0 1 2 1 1 1 1 1 0
4 3 2 1 0 1 1 1 1 1 1 1 1 1 1 1 1 2 2 2 2 3 2 2 2 2 1 1 1 1 1 1 1 1 1 1 2 2 1 1 1 1 1
3 3 2 1 1 2 1 1 1 1 1 1 1 1 1 2 2 2 2 3 3 3 3 2 2 2 2 2 2 1 1 1 2 2 2 2 1 1 2 2 1 1 1
3 2 2 2 1 1 0 0 1 2 2 1 1 1 1 2 2 2 3 3 3 3 3 3 2 2 2 2 2 2 2 2 2 2 2 2 2 1 2 3 2 2 2
2 2 2 1 2 2 1 1 1 2 2 2 1 1 2 3 3 4 3 3 3 3 4 3 2 2 2 2 3 3 3 3 3 3 2 2 2 2 2 2 3 3 3
2 2 2 2 2 2 1 1 1 2 3 2 2 2 2 3 3 3 3 4 3 3 4 3 2 2 3 3 3 3 3 4 4 4 3 3 3 2 2 2 2 3 2
2 1 1 1 1 2 2 1 2 2 3 3 3 3 3 2 3 3 3 4 3 3 4 3 3 3 3 3 3 2 3 3 4 4 4 3 3 3 3 3 2 3 3
2 2 2 2 2 2 2 1 2 3 3 3 3 3 3 3 4 4 3 3 3 3 4 4 3 3 3 3 3 2 3 3 4 4 4 4 3 3 3 3 3 3 4
3 3 2 2 2 2 2 2 2 2 3 3 3 3 4 4 4 4 4 4 4 4 4 4 4 4 4 4 3 3 4 4 4 4 4 5 4 4 3 4 4 4 5
3 3 3 2 2 2 2 3 3 3 3 4 4 4 4 4 4 4 4 5 4 4 4 5 5 5 4 4 3 4 4 5 5 5 5 5 5 4 4 4 4 4 4
2 2 2 2 2 2 3 3 3 3 4 3 4 4 4 4 4 5 5 5 5 4 4 4 5 5 5 4 4 5 5 5 6 6 5 6 4 5 5 5 5 5 4
3 3 2 2 2 3 3 3 3 4 4 3 4 4 4 4 5 5 5 5 5 5 5 5 5 5 5 5 5 5 5 6 6 6 6 6 6 6 5 5 6 5 5
3 3 3 3 3 3 3 3 4 4 4 4 4 5 5 5 5 6 5 5 5 5 5 6 5 5 6 6 6 6 6 6 7 7 7 7 7 7 7 6 6 5 5
4 4 4 4 3 3 3 4 4 4 4 4 5 5 5 5 5 5 5 5 5 6 6 6 6 6 5 5 7 7 6 6 7 7 7 7 9 10 8 7 6 6 5
6 5 4 4 4 4 4 4 4 4 4 4 5 5 5 6 6 6 5 6 6 5 6 6 6 7 6 9 11 9 6 6 6 7 6 7 8 9 12 13 12 10 8
6 6 5 4 4 4 4 4 4 5 4 5 5 5 5 6 6 6 6 6 6 6 6 6 6 7 8 11 11 11 7 6 6 6 6 6 6 8 7 9 11 11 13
6 6 5 5 4 4 4 4 4 4 5 5 5 5 6 6 6 6 6 6 6 6 6 7 7 7 8 12 12 12 8 6 6 6 6 7 6 7 7 7 7 8 8
5 5 4 4 4 4 4 4 4 4 5 5 6 6 6 6 6 6 7 6 6 6 7 7 7 7 9 12 12 11 6 6 6 6 6 7 7 9 11 8 7 7 6
3 3 3 3 3 4 3 3 5 5 5 6 6 6 6 6 7 7 7 6 6 7 7 7 6 7 8 11 12 11 5 5 5 5 6 9 9 10 10 7 7 7 6
4 3 2 3 3 3 3 4 5 6 6 6 6 6 6 6 7 6 6 6 6 7 7 7 7 7 8 10 11 11 5 5 5 5 5 5 10 11 11 9 6 8 6
4 3 3 3 3 3 3 4 6 6 6 6 6 7 7 6 6 6 6 6 6 7 6 6 7 5 6 8 9 11 10 8 6 5 5 5 9 9 10 8 8 9 7
4 3 3 4 4 3 3 5 6 6 6 6 6 6 7 6 6 6 6 5 5 5 5 5 5 5 5 6 10 11 11 11 6 5 8 8 8 8 7 8 8 7 4
4 3 3 4 5 4 4 5 6 6 5 6 6 6 6 6 6 5 5 5 4 5 5 5 5 6 5 5 5 5 6 8 7 5 6 7 7 6 5 5 5 3 3
4 3 4 5 6 5 5 6 5 5 5 6 6 6 6 6 6 5 4 5 5 6 6 5 5 6 6 7 10 7 5 4 5 3 2 2 2 3 2 2 2 2 2
4 4 4 5 5 5 6 6 5 4 5 5 5 4 4 5 4 5 5 8 8 11 11 10 9 8 10 13 12 12 11 9 6 3 2 2 2 3 3 3 2 2 2
Wind_Direction
269 273 260 257 144 77 67 16 54 8 21 3 347 330 319 319 329 328 337 343 332 327 331 327 327 326 317 315 340 342 353 10 12 8 330 306 264 247 245 232 211 237 258
301 296 297 272 161 196 243 319 273 324 345 329 283 269 286 291 299 308 320 327 331 316 312 318 307 296 295 328 347 9 349 309 42 113 290 302 302 280 252 222 209 224 238
264 272 272 257 238 243 238 242 284 313 331 337 358 354 343 334 337 329 317 313 317 316 301 300 295 275 256 260 276 272 239 246 265 257 195 196 244 303 289 257 217 216 224
274 269 258 263 257 253 249 255 298 335 339 358 9 7 338 305 289 293 298 311 316 317 310 301 279 260 255 253 258 256 255 222 245 276 280 265 210 223 286 286 248 225 229
269 265 258 255 297 301 304 302 351 353 349 351 339 315 305 296 304 312 310 307 308 306 306 302 277 263 264 260 263 260 248 240 232 243 272 287 280 239 217 261 272 271 238
311 316 337 13 10 11 15 12 13 347 347 344 332 311 302 310 315 317 311 309 304 302 301 298 287 275 268 264 262 250 242 242 245 242 241 235 237 235 226 237 257 270 266
332 345 2 0 0 360 0 6 3 337 337 339 332 315 303 298 290 296 299 300 296 286 285 284 281 281 274 268 263 257 247 241 240 240 245 243 248 257 248 230 247 267 278
337 320 304 302 314 335 349 351 342 329 332 333 326 320 317 303 292 289 288 286 285 281 282 277 275 278 278 275 260 262 262 251 245 249 249 256 257 260 256 233 219 256 260
325 320 320 323 328 339 338 330 330 329 328 326 326 324 321 313 302 300 298 296 296 298 301 289 283 281 277 273 264 255 258 258 254 251 246 249 256 253 261 257 224 217 242
325 333 332 325 330 340 342 346 334 321 325 325 322 320 315 315 310 305 304 304 303 298 303 295 285 281 276 275 270 262 257 257 259 255 247 247 247 253 251 256 251 231 231
307 316 324 332 342 352 350 348 343 337 334 328 324 321 315 317 317 308 306 305 305 301 293 293 286 280 275 269 265 268 263 259 262 261 252 254 251 248 251 252 251 244 232
302 309 319 341 349 343 339 338 335 327 320 319 319 314 317 320 315 309 309 307 307 303 292 283 283 278 274 266 259 262 265 259 259 261 257 257 259 250 247 246 246 248 242
314 322 328 326 322 322 323 321 321 321 322 322 318 316 319 315 308 305 307 307 306 304 298 288 280 279 274 266 260 256 260 258 256 254 255 254 250 251 245 245 246 245 252
303 308 310 307 308 311 311 312 317 320 322 322 315 311 307 304 301 301 304 304 304 303 302 294 283 278 277 272 268 262 257 258 258 254 252 251 245 247 247 244 243 241 243
301 297 298 300 305 311 313 312 315 317 317 314 309 304 303 301 300 301 301 302 301 300 299 296 292 285 277 267 263 259 254 256 259 258 255 252 254 255 254 250 238 232 234
294 295 299 301 301 301 304 309 309 310 310 302 299 303 304 303 301 300 302 303 301 299 299 295 292 289 284 283 279 275 261 260 260 263 262 260 262 266 268 266 256 246 237
296 298 296 288 288 290 296 295 299 307 306 300 298 301 302 301 299 300 304 301 299 298 295 291 288 285 283 288 286 281 274 263 260 261 261 265 267 271 263 266 261 256 251
289 293 294 296 298 297 299 301 306 305 301 299 299 302 302 299 301 299 296 293 292 290 287 288 285 283 285 291 291 286 275 267 262 258 256 260 264 262 266 259 252 250 247
277 282 284 290 296 298 302 309 307 303 300 298 298 299 299 297 297 294 290 288 288 287 283 283 283 280 283 290 291 290 275 272 271 268 265 264 259 267 273 266 260 257 257
291 293 297 301 300 301 306 306 300 299 293 293 295 295 293 290 289 287 286 284 282 283 285 286 284 279 278 287 291 290 275 273 273 270 268 271 274 275 273 264 259 255 255
297 296 297 293 288 293 297 293 294 287 289 295 296 296 293 289 285 283 282 282 284 286 282 283 284 278 280 288 290 288 277 272 273 273 270 270 280 278 275 272 263 264 267
309 301 297 299 300 296 288 289 289 290 295 297 296 297 296 293 291 285 285 284 282 283 280 283 288 283 282 288 287 287 283 284 273 273 270 274 282 282 278 274 274 275 272
302 300 292 300 305 299 280 283 291 299 299 298 296 297 298 296 294 290 288 288 282 279 284 284 289 296 294 288 292 289 287 287 278 273 279 284 284 279 274 278 281 276 260
299 298 298 299 300 300 293 283 290 298 296 295 296 298 298 298 296 292 287 286 283 280 283 286 290 294 293 287 279 272 277 283 279 281 286 288 286 282 289 291 283 271 256
298 292 290 289 292 298 296 293 295 297 293 292 292 297 297 296 297 295 286 286 273 278 283 281 282 290 290 290 298 296 280 267 263 273 273 280 278 280 283 289 290 286 275
295 296 291 290 292 294 294 295 294 292 290 295 298 297 298 298 299 302 304 302 302 305 306 306 302 296 298 302 301 300 300 296 289 272 258 264 271 274 278 282 286 290 283